Weather History for Laconia, NH

Change the Weather History Date:

Thursday, January 27, 2011

  Actual Average Record
Temperature  
Mean Temperature 22 °F -  
Max Temperature 30 °F 28 °F 52 °F (1986)
Min Temperature 15 °F 6 °F -23 °F (1994)
Degree Days  
Heating Degree Days 42    
Moisture  
Dew Point 15 °F    
Average Humidity 67    
Maximum Humidity 86    
Minimum Humidity 47    
Precipitation  
Precipitation 0.09 in - - ()
Sea Level Pressure  
Sea Level Pressure 29.62 in    
Wind  
Wind Speed 8 mph (NW)    
Max Wind Speed 20 mph    
Max Gust Speed 30 mph    
Visibility 7 miles    
Events      
Averages and records for this station are not official NWS values.
T = Trace of Precipitation, MM = Missing Value Source: NWS Daily Summary

Daily Weather History Graph

Daily Weather History Graph

Search for Another Location

Airport:

Trip Planner

Search our weather history database for the weather conditions in past years. The results will help you decide how hot, cold, wet, or windy it might be!

Date:

Astronomy

Jan. 27, 2011 Rise Set
Actual Time 7:07 AM EST 4:49 PM EST
Civil Twilight 6:36 AM EST 5:20 PM EST
Nautical Twilight 6:01 AM EST 5:55 PM EST
Astronomical Twilight 5:28 AM EST 6:29 PM EST
Moon 1:35 AM EST (1/27) 11:03 AM EST (1/27)
Length of Visible Light 10h 44m
Length of Day
9h 42m
Last Quarter, 37% of the Moon is Illuminated
Jan 27
Last Quarter
Feb 2
New
Feb 11
First Quarter
Feb 18
Full
Feb 24
Last Quarter

Hourly Weather History & Observations

Time (EST) Temp. Windchill Dew Point Humidity Pressure Visibility Wind Dir Wind Speed Gust Speed Precip Events Conditions
12:15 AM 24.8 °F 14.6 °F 19.4 °F 80% 29.66 in 2.5 mi ENE 10.4 mph - N/A   Overcast
12:35 AM 24.8 °F 16.9 °F 19.4 °F 80% 29.66 in 1.8 mi NE 6.9 mph - N/A   Overcast
12:55 AM 24.8 °F 17.9 °F 19.4 °F 80% 29.67 in 1.0 mi NE 5.8 mph - N/A   Overcast
1:15 AM 24.8 °F 14.6 °F 19.4 °F 80% 29.66 in 1.0 mi ENE 10.4 mph - N/A   Overcast
1:35 AM 24.8 °F 15.3 °F 19.4 °F 80% 29.64 in 1.0 mi NE 9.2 mph - 0.01 in   Overcast
1:55 AM 23.0 °F 13.9 °F 19.4 °F 86% 29.61 in 0.8 mi NE 8.1 mph - 0.01 in   Overcast
2:15 AM 24.8 °F 17.9 °F 19.4 °F 80% 29.60 in 0.8 mi NE 5.8 mph - 0.01 in   Overcast
2:35 AM 24.8 °F 17.9 °F 19.4 °F 80% 29.59 in 1.0 mi NE 5.8 mph - 0.02 in   Overcast
2:55 AM 24.8 °F 16.1 °F 19.4 °F 80% 29.59 in 1.8 mi ENE 8.1 mph - 0.02 in   Overcast
3:15 AM 24.8 °F 16.1 °F 19.4 °F 80% 29.58 in 2.5 mi ENE 8.1 mph - N/A   Overcast
3:35 AM 23.0 °F 15.8 °F 19.4 °F 86% 29.57 in 2.0 mi NE 5.8 mph - N/A   Overcast
3:55 AM 23.0 °F 12.4 °F 17.6 °F 80% 29.57 in 2.0 mi East 10.4 mph - N/A   Overcast
4:15 AM 23.0 °F 13.1 °F 19.4 °F 86% 29.57 in 1.2 mi ENE 9.2 mph - N/A   Overcast
4:35 AM 23.0 °F 17.0 °F 19.4 °F 86% 29.57 in 1.5 mi ENE 4.6 mph - N/A   Overcast
4:55 AM 23.0 °F 15.8 °F 19.4 °F 86% 29.57 in 2.0 mi NE 5.8 mph - N/A   Overcast
5:15 AM 23.0 °F 18.4 °F 19.4 °F 86% 29.57 in 2.5 mi North 3.5 mph - 0.01 in   Overcast
5:35 AM 23.0 °F - 17.6 °F 80% 29.57 in 3.0 mi Calm Calm - 0.01 in   Overcast
5:55 AM 23.0 °F - 19.4 °F 86% 29.57 in 7.0 mi Calm Calm - 0.01 in   Overcast
6:15 AM 23.0 °F - 19.4 °F 86% 29.57 in 7.0 mi Calm Calm - N/A   Overcast
6:35 AM 21.2 °F - 17.6 °F 86% 29.57 in 9.0 mi Calm Calm - N/A   Overcast
6:55 AM 23.0 °F - 17.6 °F 80% 29.57 in 10.0 mi Calm Calm - N/A   Overcast
7:15 AM 21.2 °F - 17.6 °F 86% 29.57 in 8.0 mi Calm Calm - N/A   Overcast
7:35 AM 21.2 °F - 17.6 °F 86% 29.57 in 6.0 mi Calm Calm - N/A   Overcast
7:55 AM 21.2 °F 14.9 °F 17.6 °F 86% 29.57 in 5.0 mi WSW 4.6 mph - N/A   Scattered Clouds
8:15 AM 21.2 °F 14.9 °F 17.6 °F 86% 29.57 in 10.0 mi WSW 4.6 mph - N/A   Clear
8:35 AM 24.8 °F 16.1 °F 17.6 °F 74% 29.57 in 10.0 mi West 8.1 mph - N/A   Clear
8:55 AM 24.8 °F 16.9 °F 17.6 °F 74% 29.57 in 10.0 mi WNW 6.9 mph - N/A   Clear
9:15 AM 26.6 °F 20.0 °F 15.8 °F 64% 29.57 in 10.0 mi WNW 5.8 mph 20.7 mph N/A   Clear
9:35 AM 26.6 °F 14.3 °F 15.8 °F 64% 29.58 in 10.0 mi WNW 16.1 mph 21.9 mph N/A   Clear
9:55 AM 26.6 °F 16.2 °F 15.8 °F 64% 29.58 in 10.0 mi NW 11.5 mph 20.7 mph N/A   Clear
10:15 AM 28.4 °F 18.5 °F 15.8 °F 59% 29.60 in 10.0 mi NW 11.5 mph 20.7 mph N/A   Clear
10:35 AM 28.4 °F 15.8 °F 15.8 °F 59% 29.60 in 9.0 mi WNW 18.4 mph 25.3 mph N/A   Clear
10:55 AM 28.4 °F 18.0 °F 14.0 °F 55% 29.60 in 10.0 mi WNW 12.7 mph 23.0 mph N/A   Clear
11:15 AM 28.4 °F 19.7 °F 14.0 °F 55% 29.60 in 10.0 mi NW 9.2 mph 24.2 mph N/A   Clear
11:35 AM 28.4 °F 17.5 °F 14.0 °F 55% 29.60 in 7.0 mi NW 13.8 mph 25.3 mph N/A   Clear
11:55 AM 28.4 °F 16.2 °F 12.2 °F 51% 29.60 in 10.0 mi NW 17.3 mph 28.8 mph N/A   Clear
12:15 PM 28.4 °F 18.0 °F 12.2 °F 51% 29.59 in 10.0 mi NW 12.7 mph 26.5 mph N/A   Clear
12:35 PM 30.2 °F 17.8 °F 14.0 °F 51% 29.59 in 10.0 mi WNW 19.6 mph 24.2 mph N/A   Clear
12:55 PM 30.2 °F 21.9 °F 12.2 °F 47% 29.58 in 10.0 mi NW 9.2 mph 24.2 mph N/A   Clear
1:15 PM 30.2 °F 17.8 °F 12.2 °F 47% 29.58 in 9.0 mi NW 19.6 mph 29.9 mph N/A   Clear
1:35 PM 30.2 °F 19.8 °F 14.0 °F 51% 29.59 in 10.0 mi NW 13.8 mph 19.6 mph N/A   Clear
1:55 PM 30.2 °F 21.3 °F 12.2 °F 47% 29.60 in 10.0 mi NW 10.4 mph 18.4 mph N/A   Clear
2:15 PM 30.2 °F 19.8 °F 12.2 °F 47% 29.60 in 10.0 mi WNW 13.8 mph 23.0 mph N/A   Clear
2:35 PM 30.2 °F 20.2 °F 12.2 °F 47% 29.61 in 10.0 mi NW 12.7 mph 24.2 mph N/A   Clear
2:55 PM 30.2 °F 20.2 °F 12.2 °F 47% 29.62 in 10.0 mi NW 12.7 mph 23.0 mph N/A   Clear
3:15 PM 30.2 °F 19.8 °F 12.2 °F 47% 29.63 in 10.0 mi WNW 13.8 mph 21.9 mph N/A   Clear
3:55 PM 28.4 °F 17.0 °F 12.2 °F 51% 29.65 in 10.0 mi WNW 15.0 mph 23.0 mph N/A   Clear
4:15 PM 28.4 °F 18.0 °F 12.2 °F 51% 29.66 in 10.0 mi WNW 12.7 mph 21.9 mph N/A   Clear
4:35 PM 28.4 °F 17.5 °F 12.2 °F 51% 29.66 in 10.0 mi NW 13.8 mph 20.7 mph N/A   Clear
4:55 PM 28.4 °F 19.7 °F 12.2 °F 51% 29.67 in 10.0 mi WNW 9.2 mph - N/A   Clear
5:15 PM 26.6 °F 19.1 °F 12.2 °F 55% 29.68 in 4.0 mi NW 6.9 mph 16.1 mph N/A   Clear
5:35 PM 26.6 °F 19.1 °F 12.2 °F 55% 29.68 in 10.0 mi WNW 6.9 mph - 0.01 in   Partly Cloudy
5:55 PM 26.6 °F 18.2 °F 12.2 °F 55% 29.69 in 10.0 mi WNW 8.1 mph - 0.03 in   Clear
6:15 PM 26.6 °F 19.1 °F 12.2 °F 55% 29.69 in 10.0 mi West 6.9 mph - 0.01 in   Clear
6:35 PM 26.6 °F 21.2 °F 12.2 °F 55% 29.70 in 10.0 mi West 4.6 mph - 0.02 in   Clear
6:55 PM 26.6 °F 21.2 °F 12.2 °F 55% 29.70 in 10.0 mi West 4.6 mph - 0.02 in   Clear
7:15 PM 24.8 °F 19.1 °F 12.2 °F 59% 29.71 in 10.0 mi West 4.6 mph - N/A   Clear
7:35 PM 21.2 °F 16.4 °F 10.4 °F 63% 29.72 in 10.0 mi SW 3.5 mph - N/A   Clear
7:55 PM 21.2 °F 13.6 °F 10.4 °F 63% 29.73 in 10.0 mi WSW 5.8 mph - N/A   Clear
8:15 PM 19.4 °F 14.3 °F 10.4 °F 68% 29.73 in 10.0 mi SW 3.5 mph - N/A   Clear
8:35 PM 17.6 °F - 10.4 °F 73% 29.73 in 10.0 mi Calm Calm - N/A   Clear
8:55 PM 15.8 °F 8.6 °F 10.4 °F 79% 29.73 in 10.0 mi WSW 4.6 mph - N/A   Clear
9:15 PM 17.6 °F 9.3 °F 10.4 °F 73% 29.73 in 10.0 mi WSW 5.8 mph - N/A   Clear
9:35 PM 15.8 °F 10.2 °F 6.8 °F 68% 29.73 in 10.0 mi SW 3.5 mph - N/A   Clear
9:55 PM 15.8 °F - 8.6 °F 73% 29.73 in 10.0 mi Calm Calm - N/A   Clear
10:15 PM 14.0 °F - 8.6 °F 79% 29.73 in 10.0 mi Calm Calm - N/A   Clear
10:35 PM 14.0 °F - 8.6 °F 79% 29.74 in 10.0 mi Calm Calm - N/A   Clear
10:55 PM 12.2 °F 6.1 °F 6.8 °F 79% 29.75 in 10.0 mi West 3.5 mph - N/A   Clear
11:15 PM 12.2 °F 4.3 °F 6.8 °F 79% 29.76 in 10.0 mi WSW 4.6 mph - N/A   Clear
11:35 PM 14.0 °F 8.2 °F 8.6 °F 79% 29.76 in 10.0 mi WSW 3.5 mph - N/A   Clear
11:55 PM 15.8 °F 6.1 °F 8.6 °F 73% 29.76 in 10.0 mi West 6.9 mph - N/A   Clear